Year,Month,Day,Hour,Minute,Value (Times are PST for temperature in C)
2017,08,04,00,00,20.10
2017,08,04,00,01,20.00
2017,08,04,00,02,19.90
2017,08,04,00,03,19.90
2017,08,04,00,04,19.90
2017,08,04,00,05,19.90
2017,08,04,00,06,19.80
2017,08,04,00,07,19.80
2017,08,04,00,08,19.80
2017,08,04,00,09,19.70
2017,08,04,00,10,19.70
2017,08,04,00,11,19.70
2017,08,04,00,12,19.70
2017,08,04,00,13,19.70
2017,08,04,00,14,19.60
2017,08,04,00,15,19.60
2017,08,04,00,16,19.60
2017,08,04,00,17,19.70
2017,08,04,00,18,19.70
2017,08,04,00,19,19.70
2017,08,04,00,20,19.70
2017,08,04,00,21,19.70
2017,08,04,00,22,19.70
2017,08,04,00,23,19.70
2017,08,04,00,24,19.70
2017,08,04,00,25,19.70
2017,08,04,00,26,19.70
2017,08,04,00,27,19.60
2017,08,04,00,28,19.60
2017,08,04,00,29,19.60
2017,08,04,00,30,19.50
2017,08,04,00,31,19.50
2017,08,04,00,32,19.50
2017,08,04,00,33,19.50
2017,08,04,00,34,19.50
2017,08,04,00,35,19.50
2017,08,04,00,36,19.50
2017,08,04,00,37,19.50
2017,08,04,00,38,19.50
2017,08,04,00,39,19.50
2017,08,04,00,40,19.50
2017,08,04,00,41,19.40
2017,08,04,00,42,19.40
2017,08,04,00,43,19.30
2017,08,04,00,44,19.30
2017,08,04,00,45,19.30
2017,08,04,00,46,19.20
2017,08,04,00,47,19.20
2017,08,04,00,48,19.10
2017,08,04,00,49,19.10
2017,08,04,00,50,19.10
2017,08,04,00,51,19.00
2017,08,04,00,52,18.90
2017,08,04,00,53,18.90
2017,08,04,00,54,18.90
2017,08,04,00,55,18.80
2017,08,04,00,56,18.80
2017,08,04,00,57,18.80
2017,08,04,00,58,18.70
2017,08,04,00,59,18.70
2017,08,04,01,00,18.70
2017,08,04,01,01,18.70
2017,08,04,01,02,18.70
2017,08,04,01,03,18.60
2017,08,04,01,04,18.60
2017,08,04,01,05,18.60
2017,08,04,01,06,18.60
2017,08,04,01,07,18.50
2017,08,04,01,08,18.50
2017,08,04,01,09,18.50
2017,08,04,01,10,18.50
2017,08,04,01,11,18.50
2017,08,04,01,12,18.50
2017,08,04,01,13,18.40
2017,08,04,01,14,18.40
2017,08,04,01,15,18.40
2017,08,04,01,16,18.40
2017,08,04,01,17,18.40
2017,08,04,01,18,18.40
2017,08,04,01,19,18.40
2017,08,04,01,20,18.40
2017,08,04,01,21,18.30
2017,08,04,01,22,18.30
2017,08,04,01,23,18.30
2017,08,04,01,24,18.30
2017,08,04,01,25,18.20
2017,08,04,01,26,18.20
2017,08,04,01,27,18.20
2017,08,04,01,28,18.20
2017,08,04,01,29,18.20
2017,08,04,01,30,18.10
2017,08,04,01,31,18.10
2017,08,04,01,32,18.10
2017,08,04,01,33,18.00
2017,08,04,01,34,17.90
2017,08,04,01,35,17.90
2017,08,04,01,36,17.90
2017,08,04,01,37,17.90
2017,08,04,01,38,17.90
2017,08,04,01,39,17.90
2017,08,04,01,40,17.80
2017,08,04,01,41,17.80
2017,08,04,01,42,17.80
2017,08,04,01,43,17.70
2017,08,04,01,44,17.70
2017,08,04,01,45,17.70
2017,08,04,01,46,17.70
2017,08,04,01,47,17.70
2017,08,04,01,48,17.70
2017,08,04,01,49,17.60
2017,08,04,01,50,17.60
2017,08,04,01,51,17.60
2017,08,04,01,52,17.60
2017,08,04,01,53,17.60
2017,08,04,01,54,17.50
2017,08,04,01,55,17.50
2017,08,04,01,56,17.50
2017,08,04,01,57,17.50
2017,08,04,01,58,17.50
2017,08,04,01,59,17.40
2017,08,04,02,00,17.40
2017,08,04,02,01,17.40
2017,08,04,02,02,17.30
2017,08,04,02,03,17.30
2017,08,04,02,04,17.30
2017,08,04,02,05,17.30
2017,08,04,02,06,17.30
2017,08,04,02,07,17.30
2017,08,04,02,08,17.30
2017,08,04,02,09,17.30
2017,08,04,02,10,17.20
2017,08,04,02,11,17.20
2017,08,04,02,12,17.20
2017,08,04,02,13,17.20
2017,08,04,02,14,17.20
2017,08,04,02,15,17.20
2017,08,04,02,16,17.20
2017,08,04,02,17,17.20
2017,08,04,02,18,17.20
2017,08,04,02,19,17.20
2017,08,04,02,20,17.20
2017,08,04,02,21,17.20
2017,08,04,02,22,17.20
2017,08,04,02,23,17.20
2017,08,04,02,24,17.20
2017,08,04,02,25,17.10
2017,08,04,02,26,17.10
2017,08,04,02,27,17.10
2017,08,04,02,28,17.10
2017,08,04,02,29,17.10
2017,08,04,02,30,17.10
2017,08,04,02,31,17.10
2017,08,04,02,32,17.10
2017,08,04,02,33,17.10
2017,08,04,02,34,17.10
2017,08,04,02,35,17.10
2017,08,04,02,36,17.00
2017,08,04,02,37,17.00
2017,08,04,02,38,17.00
2017,08,04,02,39,17.00
2017,08,04,02,40,17.00
2017,08,04,02,41,17.00
2017,08,04,02,42,17.00
2017,08,04,02,43,17.00
2017,08,04,02,44,17.00
2017,08,04,02,45,17.00
2017,08,04,02,46,17.00
2017,08,04,02,47,17.00
2017,08,04,02,48,17.00
2017,08,04,02,49,17.00
2017,08,04,02,50,17.00
2017,08,04,02,51,17.00
2017,08,04,02,52,17.10
2017,08,04,02,53,17.10
2017,08,04,02,54,17.10
2017,08,04,02,55,17.10
2017,08,04,02,56,17.10
2017,08,04,02,57,17.10
2017,08,04,02,58,17.10
2017,08,04,02,59,17.10
2017,08,04,03,00,17.10
2017,08,04,03,01,17.10
2017,08,04,03,02,17.10
2017,08,04,03,03,17.20
2017,08,04,03,04,17.20
2017,08,04,03,05,17.30
2017,08,04,03,06,17.30
2017,08,04,03,07,17.30
2017,08,04,03,08,17.30
2017,08,04,03,09,17.30
2017,08,04,03,10,17.30
2017,08,04,03,11,17.30
2017,08,04,03,12,17.30
2017,08,04,03,13,17.30
2017,08,04,03,14,17.30
2017,08,04,03,15,17.30
2017,08,04,03,16,17.30
2017,08,04,03,17,17.30
2017,08,04,03,18,17.30
2017,08,04,03,19,17.30
2017,08,04,03,20,17.30
2017,08,04,03,21,17.40
2017,08,04,03,22,17.40
2017,08,04,03,23,17.40
2017,08,04,03,24,17.40
2017,08,04,03,25,17.40
2017,08,04,03,26,17.40
2017,08,04,03,27,17.40
2017,08,04,03,28,17.40
2017,08,04,03,29,17.40
2017,08,04,03,30,17.40
2017,08,04,03,31,17.30
2017,08,04,03,32,17.30
2017,08,04,03,33,17.30
2017,08,04,03,34,17.30
2017,08,04,03,35,17.30
2017,08,04,03,36,17.30
2017,08,04,03,37,17.30
2017,08,04,03,38,17.30
2017,08,04,03,39,17.30
2017,08,04,03,40,17.30
2017,08,04,03,41,17.30
2017,08,04,03,42,17.30
2017,08,04,03,43,17.30
2017,08,04,03,44,17.20
2017,08,04,03,45,17.20
2017,08,04,03,46,17.20
2017,08,04,03,47,17.20
2017,08,04,03,48,17.20
2017,08,04,03,49,17.10
2017,08,04,03,50,17.10
2017,08,04,03,51,17.10
2017,08,04,03,52,17.00
2017,08,04,03,53,17.00
2017,08,04,03,54,17.00
2017,08,04,03,55,16.90
2017,08,04,03,56,16.90
2017,08,04,03,57,16.90
2017,08,04,03,58,16.90
2017,08,04,03,59,16.80
2017,08,04,04,00,16.80
2017,08,04,04,01,16.80
2017,08,04,04,02,16.80
2017,08,04,04,03,16.80
2017,08,04,04,04,16.80
2017,08,04,04,05,16.80
2017,08,04,04,06,16.80
2017,08,04,04,07,16.80
2017,08,04,04,08,16.80
2017,08,04,04,09,16.80
2017,08,04,04,10,16.80
2017,08,04,04,11,16.80
2017,08,04,04,12,16.80
2017,08,04,04,13,16.70
2017,08,04,04,14,16.70
2017,08,04,04,15,16.70
2017,08,04,04,16,16.70
2017,08,04,04,17,16.70
2017,08,04,04,18,16.70
2017,08,04,04,19,16.70
2017,08,04,04,20,16.70
2017,08,04,04,21,16.60
2017,08,04,04,22,16.60
2017,08,04,04,23,16.60
2017,08,04,04,24,16.60
2017,08,04,04,25,16.60
2017,08,04,04,26,16.60
2017,08,04,04,27,16.60
2017,08,04,04,28,16.60
2017,08,04,04,29,16.70
2017,08,04,04,30,16.70
2017,08,04,04,31,16.70
2017,08,04,04,32,16.70
2017,08,04,04,33,16.80
2017,08,04,04,34,16.90
2017,08,04,04,35,17.00
2017,08,04,04,36,17.10
2017,08,04,04,37,17.20
2017,08,04,04,38,17.30
2017,08,04,04,39,17.40
2017,08,04,04,40,17.50
2017,08,04,04,41,17.50
2017,08,04,04,42,17.70
2017,08,04,04,43,17.80
2017,08,04,04,44,17.90
2017,08,04,04,45,17.90
2017,08,04,04,46,17.90
2017,08,04,04,47,18.10
2017,08,04,04,48,18.10
2017,08,04,04,49,18.20
2017,08,04,04,50,18.20
2017,08,04,04,51,18.30
2017,08,04,04,52,18.30
2017,08,04,04,53,18.30
2017,08,04,04,54,18.40
2017,08,04,04,55,18.40
2017,08,04,04,56,18.40
2017,08,04,04,57,18.40
2017,08,04,04,58,18.40
2017,08,04,04,59,18.50
2017,08,04,05,00,18.50
2017,08,04,05,01,18.60
2017,08,04,05,02,18.60
2017,08,04,05,03,18.60
2017,08,04,05,04,18.60
2017,08,04,05,05,18.70
2017,08,04,05,06,18.80
2017,08,04,05,07,18.80
2017,08,04,05,08,18.90
2017,08,04,05,09,18.90
2017,08,04,05,10,19.00
2017,08,04,05,11,19.10
2017,08,04,05,12,19.10
2017,08,04,05,13,19.10
2017,08,04,05,14,19.10
2017,08,04,05,15,19.10
2017,08,04,05,16,19.10
2017,08,04,05,17,19.10
2017,08,04,05,18,19.10
2017,08,04,05,19,19.00
2017,08,04,05,20,18.90
2017,08,04,05,21,18.90
2017,08,04,05,22,18.90
2017,08,04,05,23,18.80
2017,08,04,05,24,18.80
2017,08,04,05,25,18.80
2017,08,04,05,26,18.70
2017,08,04,05,27,18.70
2017,08,04,05,28,18.60
2017,08,04,05,29,18.60
2017,08,04,05,30,18.60
2017,08,04,05,31,18.50
2017,08,04,05,32,18.50
2017,08,04,05,33,18.50
2017,08,04,05,34,18.40
2017,08,04,05,35,18.40
2017,08,04,05,36,18.40
2017,08,04,05,37,18.40
2017,08,04,05,38,18.40
2017,08,04,05,39,18.40
2017,08,04,05,40,18.40
2017,08,04,05,41,18.40
2017,08,04,05,42,18.40
2017,08,04,05,43,18.40
2017,08,04,05,44,18.30
2017,08,04,05,45,18.30
2017,08,04,05,46,18.30
2017,08,04,05,47,18.30
2017,08,04,05,48,18.20
2017,08,04,05,49,18.20
2017,08,04,05,50,18.20
2017,08,04,05,51,18.20
2017,08,04,05,52,18.20
2017,08,04,05,53,18.20
2017,08,04,05,54,18.20
2017,08,04,05,55,18.20
2017,08,04,05,56,18.20
2017,08,04,05,57,18.10
2017,08,04,05,58,18.10
2017,08,04,05,59,18.10
2017,08,04,06,00,18.10
2017,08,04,06,01,18.10
2017,08,04,06,02,18.10
2017,08,04,06,03,18.00
2017,08,04,06,04,17.90
2017,08,04,06,05,17.90
2017,08,04,06,06,17.90
2017,08,04,06,07,17.90
2017,08,04,06,08,17.90
2017,08,04,06,09,17.90
2017,08,04,06,10,17.90
2017,08,04,06,11,17.90
2017,08,04,06,12,17.90
2017,08,04,06,13,17.90
2017,08,04,06,14,17.90
2017,08,04,06,15,17.90
2017,08,04,06,16,17.90
2017,08,04,06,17,17.90
2017,08,04,06,18,18.00
2017,08,04,06,19,18.10
2017,08,04,06,20,18.10
2017,08,04,06,21,18.20
2017,08,04,06,22,18.20
2017,08,04,06,23,18.20
2017,08,04,06,24,18.20
2017,08,04,06,25,18.20
2017,08,04,06,26,18.20
2017,08,04,06,27,18.20
2017,08,04,06,28,18.20
2017,08,04,06,29,18.20
2017,08,04,06,30,18.20
2017,08,04,06,31,18.20
2017,08,04,06,32,18.20
2017,08,04,06,33,18.20
2017,08,04,06,34,18.30
2017,08,04,06,35,18.30
2017,08,04,06,36,18.40
2017,08,04,06,37,18.40
2017,08,04,06,38,18.50
2017,08,04,06,39,18.50
2017,08,04,06,40,18.60
2017,08,04,06,41,18.60
2017,08,04,06,42,18.70
2017,08,04,06,43,18.80
2017,08,04,06,44,18.80
2017,08,04,06,45,18.80
2017,08,04,06,46,18.80
2017,08,04,06,47,18.80
2017,08,04,06,48,18.80
2017,08,04,06,49,18.80
2017,08,04,06,50,18.90
2017,08,04,06,51,18.90
2017,08,04,06,52,18.90
2017,08,04,06,53,18.90
2017,08,04,06,54,18.80
2017,08,04,06,55,18.80
2017,08,04,06,56,18.80
2017,08,04,06,57,18.80
2017,08,04,06,58,18.80
2017,08,04,06,59,18.70
2017,08,04,07,00,18.70
2017,08,04,07,01,18.70
2017,08,04,07,02,18.70
2017,08,04,07,03,18.60
2017,08,04,07,04,18.60
2017,08,04,07,05,18.60
2017,08,04,07,06,18.60
2017,08,04,07,07,18.60
2017,08,04,07,08,18.60
2017,08,04,07,09,18.60
2017,08,04,07,10,18.60
2017,08,04,07,11,18.60
2017,08,04,07,12,18.70
2017,08,04,07,13,18.70
2017,08,04,07,14,18.70
2017,08,04,07,15,18.70
2017,08,04,07,16,18.70
2017,08,04,07,17,18.80
2017,08,04,07,18,18.80
2017,08,04,07,19,18.80
2017,08,04,07,20,18.90
2017,08,04,07,21,18.90
2017,08,04,07,22,19.00
2017,08,04,07,23,19.10
2017,08,04,07,24,19.10
2017,08,04,07,25,19.20
2017,08,04,07,26,19.20
2017,08,04,07,27,19.30
2017,08,04,07,28,19.30
2017,08,04,07,29,19.30
2017,08,04,07,30,19.30
2017,08,04,07,31,19.30
2017,08,04,07,32,19.30
2017,08,04,07,33,19.30
2017,08,04,07,34,19.30
2017,08,04,07,35,19.30
2017,08,04,07,36,19.30
2017,08,04,07,37,19.30
2017,08,04,07,38,19.30
2017,08,04,07,39,19.30
2017,08,04,07,40,19.30
2017,08,04,07,41,19.20
2017,08,04,07,42,19.20
2017,08,04,07,43,19.20
2017,08,04,07,44,19.20
2017,08,04,07,45,19.20
2017,08,04,07,46,19.20
2017,08,04,07,47,19.20
2017,08,04,07,48,19.20
2017,08,04,07,49,19.30
2017,08,04,07,50,19.30
2017,08,04,07,51,19.30
2017,08,04,07,52,19.40
2017,08,04,07,53,19.40
2017,08,04,07,54,19.40
2017,08,04,07,55,19.50
2017,08,04,07,56,19.50
2017,08,04,07,57,19.60
2017,08,04,07,58,19.60
2017,08,04,07,59,19.70
2017,08,04,08,00,19.70
2017,08,04,08,01,19.80
2017,08,04,08,02,19.80
2017,08,04,08,03,19.80
2017,08,04,08,04,19.90
2017,08,04,08,05,19.90
2017,08,04,08,06,19.90
2017,08,04,08,07,19.90
2017,08,04,08,08,19.90
2017,08,04,08,09,20.00
2017,08,04,08,10,20.10
2017,08,04,08,11,20.10
2017,08,04,08,12,20.10
2017,08,04,08,13,20.10
2017,08,04,08,14,20.10
2017,08,04,08,15,20.10
2017,08,04,08,16,20.10
2017,08,04,08,17,20.20
2017,08,04,08,18,20.20
2017,08,04,08,19,20.20
2017,08,04,08,20,20.20
2017,08,04,08,21,20.20
2017,08,04,08,22,20.20
2017,08,04,08,23,20.30
2017,08,04,08,24,20.30
2017,08,04,08,25,20.30
2017,08,04,08,26,20.40
2017,08,04,08,27,20.40
2017,08,04,08,28,20.40
2017,08,04,08,29,20.40
2017,08,04,08,30,20.50
2017,08,04,08,31,20.50
2017,08,04,08,32,20.50
2017,08,04,08,33,20.60
2017,08,04,08,34,20.60
2017,08,04,08,35,20.60
2017,08,04,08,36,20.70
2017,08,04,08,37,20.70
2017,08,04,08,38,20.70
2017,08,04,08,39,20.70
2017,08,04,08,40,20.70
2017,08,04,08,41,20.70
2017,08,04,08,42,20.70
2017,08,04,08,43,20.70
2017,08,04,08,44,20.70
2017,08,04,08,45,20.70
2017,08,04,08,46,20.80
2017,08,04,08,47,20.80
2017,08,04,08,48,20.80
2017,08,04,08,49,20.90
2017,08,04,08,50,20.90
2017,08,04,08,51,20.90
2017,08,04,08,52,20.90
2017,08,04,08,53,20.90
2017,08,04,08,54,20.90
2017,08,04,08,55,21.00
2017,08,04,08,56,21.00
2017,08,04,08,57,21.10
2017,08,04,08,58,21.10
2017,08,04,08,59,21.20
2017,08,04,09,00,21.20
2017,08,04,09,01,21.20
2017,08,04,09,02,21.30
2017,08,04,09,03,21.30
2017,08,04,09,04,21.30
2017,08,04,09,05,21.30
2017,08,04,09,06,21.30
2017,08,04,09,07,21.30
2017,08,04,09,08,21.30
2017,08,04,09,09,21.30
2017,08,04,09,10,21.30
2017,08,04,09,11,21.30
2017,08,04,09,12,21.40
2017,08,04,09,13,21.40
2017,08,04,09,14,21.40
2017,08,04,09,15,21.40
2017,08,04,09,16,21.40
2017,08,04,09,17,21.40
2017,08,04,09,18,21.40
2017,08,04,09,19,21.40
2017,08,04,09,20,21.40
2017,08,04,09,21,21.40
2017,08,04,09,22,21.40
2017,08,04,09,23,21.40
2017,08,04,09,24,21.40
2017,08,04,09,25,21.50
2017,08,04,09,26,21.60
2017,08,04,09,27,21.60
2017,08,04,09,28,21.60
2017,08,04,09,29,21.60
2017,08,04,09,30,21.70
2017,08,04,09,31,21.70
2017,08,04,09,32,21.60
2017,08,04,09,33,21.60
2017,08,04,09,34,21.50
2017,08,04,09,35,21.40
2017,08,04,09,36,21.40
2017,08,04,09,37,21.40
2017,08,04,09,38,21.50
2017,08,04,09,39,21.60
2017,08,04,09,40,21.70
2017,08,04,09,41,21.80
2017,08,04,09,42,21.90
2017,08,04,09,43,21.90
2017,08,04,09,44,22.00
2017,08,04,09,45,22.00
2017,08,04,09,46,22.00
2017,08,04,09,47,22.00
2017,08,04,09,48,22.00
2017,08,04,09,49,22.00
2017,08,04,09,50,22.00
2017,08,04,09,51,22.00
2017,08,04,09,52,22.00
2017,08,04,09,53,22.00
2017,08,04,09,54,22.00
2017,08,04,09,55,22.00
2017,08,04,09,56,22.00
2017,08,04,09,57,22.00
2017,08,04,09,58,22.00
2017,08,04,09,59,22.10
2017,08,04,10,00,22.10
2017,08,04,10,01,22.10
2017,08,04,10,02,22.20
2017,08,04,10,03,22.20
2017,08,04,10,04,22.30
2017,08,04,10,05,22.40
2017,08,04,10,06,22.40
2017,08,04,10,07,22.50
2017,08,04,10,08,22.60
2017,08,04,10,09,22.70
2017,08,04,10,10,22.80
2017,08,04,10,11,22.80
2017,08,04,10,12,22.80
2017,08,04,10,13,22.80
2017,08,04,10,14,22.90
2017,08,04,10,15,22.90
2017,08,04,10,16,22.80
2017,08,04,10,17,22.80
2017,08,04,10,18,22.80
2017,08,04,10,19,22.80
2017,08,04,10,20,22.80
2017,08,04,10,21,22.80
2017,08,04,10,22,22.80
2017,08,04,10,23,22.80
2017,08,04,10,24,22.90
2017,08,04,10,25,22.90
2017,08,04,10,26,23.00
2017,08,04,10,27,23.10
2017,08,04,10,28,23.00
2017,08,04,10,29,22.90
2017,08,04,10,30,22.90
2017,08,04,10,31,22.90
2017,08,04,10,32,23.00
2017,08,04,10,33,23.10
2017,08,04,10,34,23.20
2017,08,04,10,35,23.30
2017,08,04,10,36,23.30
2017,08,04,10,37,23.30
2017,08,04,10,38,23.40
2017,08,04,10,39,23.40
2017,08,04,10,40,23.40
2017,08,04,10,41,23.40
2017,08,04,10,42,23.40
2017,08,04,10,43,23.30
2017,08,04,10,44,23.20
2017,08,04,10,45,23.20
2017,08,04,10,46,23.20
2017,08,04,10,47,23.30
2017,08,04,10,48,23.30
2017,08,04,10,49,23.30
2017,08,04,10,50,23.30
2017,08,04,10,51,23.30
2017,08,04,10,52,23.30
2017,08,04,10,53,23.10
2017,08,04,10,54,23.00
2017,08,04,10,55,22.90
2017,08,04,10,56,23.00
2017,08,04,10,57,23.10
2017,08,04,10,58,23.20
2017,08,04,10,59,23.20
2017,08,04,11,00,23.20
2017,08,04,11,01,23.10
2017,08,04,11,02,23.10
2017,08,04,11,03,23.20
2017,08,04,11,04,23.20
2017,08,04,11,05,23.10
2017,08,04,11,06,23.10
2017,08,04,11,07,23.10
2017,08,04,11,08,23.10
2017,08,04,11,09,23.20
2017,08,04,11,10,23.40
2017,08,04,11,11,23.50
2017,08,04,11,12,23.70
2017,08,04,11,13,23.60
2017,08,04,11,14,23.60
2017,08,04,11,15,23.70
2017,08,04,11,16,23.70
2017,08,04,11,17,23.70
2017,08,04,11,18,23.70
2017,08,04,11,19,23.60
2017,08,04,11,20,23.50
2017,08,04,11,21,23.40
2017,08,04,11,22,23.40
2017,08,04,11,23,23.30
2017,08,04,11,24,23.30
2017,08,04,11,25,23.40
2017,08,04,11,26,23.60
2017,08,04,11,27,23.70
2017,08,04,11,28,23.70
2017,08,04,11,29,23.70
2017,08,04,11,30,23.70
2017,08,04,11,31,23.60
2017,08,04,11,32,23.60
2017,08,04,11,33,23.70
2017,08,04,11,34,23.80
2017,08,04,11,35,23.90
2017,08,04,11,36,23.90
2017,08,04,11,37,23.90
2017,08,04,11,38,23.80
2017,08,04,11,39,23.70
2017,08,04,11,40,23.70
2017,08,04,11,41,23.70
2017,08,04,11,42,23.80
2017,08,04,11,43,23.80
2017,08,04,11,44,23.80
2017,08,04,11,45,24.00
2017,08,04,11,46,24.10
2017,08,04,11,47,24.10
2017,08,04,11,48,24.20
2017,08,04,11,49,24.30
2017,08,04,11,50,24.30
2017,08,04,11,51,24.40
2017,08,04,11,52,24.40
2017,08,04,11,53,24.40
2017,08,04,11,54,24.30
2017,08,04,11,55,24.20
2017,08,04,11,56,24.10
2017,08,04,11,57,24.10
2017,08,04,11,58,24.10
2017,08,04,11,59,24.10
2017,08,04,12,00,24.30
2017,08,04,12,01,24.40
2017,08,04,12,02,24.40
2017,08,04,12,03,24.40
2017,08,04,12,04,24.50
2017,08,04,12,05,24.60
2017,08,04,12,06,24.60
2017,08,04,12,07,24.60
2017,08,04,12,08,24.70
2017,08,04,12,09,24.70
2017,08,04,12,10,24.70
2017,08,04,12,11,24.50
2017,08,04,12,12,24.40
2017,08,04,12,13,24.30
2017,08,04,12,14,24.20
2017,08,04,12,15,24.30
2017,08,04,12,16,24.40
2017,08,04,12,17,24.40
2017,08,04,12,18,24.40
2017,08,04,12,19,24.30
2017,08,04,12,20,24.20
2017,08,04,12,21,24.10
2017,08,04,12,22,24.00
2017,08,04,12,23,24.10
2017,08,04,12,24,24.10
2017,08,04,12,25,24.20
2017,08,04,12,26,24.20
2017,08,04,12,27,24.30
2017,08,04,12,28,24.30
2017,08,04,12,29,24.30
2017,08,04,12,30,24.40
2017,08,04,12,31,24.40
2017,08,04,12,32,24.50
2017,08,04,12,33,24.40
2017,08,04,12,34,24.40
2017,08,04,12,35,24.30
2017,08,04,12,36,24.30
2017,08,04,12,37,24.40
2017,08,04,12,38,24.30
2017,08,04,12,39,24.30
2017,08,04,12,40,24.40
2017,08,04,12,41,24.40
2017,08,04,12,42,24.30
2017,08,04,12,43,24.20
2017,08,04,12,44,24.30
2017,08,04,12,45,24.40
2017,08,04,12,46,24.50
2017,08,04,12,47,24.50
2017,08,04,12,48,24.60
2017,08,04,12,49,24.70
2017,08,04,12,50,24.80
2017,08,04,12,51,24.90
2017,08,04,12,52,25.00
2017,08,04,12,53,25.00
2017,08,04,12,54,25.00
2017,08,04,12,55,25.00
2017,08,04,12,56,25.00
2017,08,04,12,57,24.90
2017,08,04,12,58,24.90
2017,08,04,12,59,24.80
2017,08,04,13,00,24.70
2017,08,04,13,01,24.80
2017,08,04,13,02,24.70
2017,08,04,13,03,24.50
2017,08,04,13,04,24.40
2017,08,04,13,05,24.20
2017,08,04,13,06,24.10
2017,08,04,13,07,24.10
2017,08,04,13,08,24.10
2017,08,04,13,09,24.10
2017,08,04,13,10,24.10
2017,08,04,13,11,24.10
2017,08,04,13,12,24.20
2017,08,04,13,13,24.20
2017,08,04,13,14,24.20
2017,08,04,13,15,24.30
2017,08,04,13,16,24.40
2017,08,04,13,17,24.60
2017,08,04,13,18,24.60
2017,08,04,13,19,24.70
2017,08,04,13,20,24.70
2017,08,04,13,21,24.70
2017,08,04,13,22,24.70
2017,08,04,13,23,24.70
2017,08,04,13,24,24.70
2017,08,04,13,25,24.60
2017,08,04,13,26,24.50
2017,08,04,13,27,24.40
2017,08,04,13,28,24.40
2017,08,04,13,29,24.30
2017,08,04,13,30,24.30
2017,08,04,13,31,24.30
2017,08,04,13,32,24.40
2017,08,04,13,33,24.40
2017,08,04,13,34,24.40
2017,08,04,13,35,24.30
2017,08,04,13,36,24.20
2017,08,04,13,37,24.10
2017,08,04,13,38,24.10
2017,08,04,13,39,24.10
2017,08,04,13,40,24.00
2017,08,04,13,41,24.10
2017,08,04,13,42,24.20
2017,08,04,13,43,24.20
2017,08,04,13,44,24.30
2017,08,04,13,45,24.20
2017,08,04,13,46,24.10
2017,08,04,13,47,24.10
2017,08,04,13,48,24.10
2017,08,04,13,49,24.10
2017,08,04,13,50,24.20
2017,08,04,13,51,24.20
2017,08,04,13,52,24.30
2017,08,04,13,53,24.30
2017,08,04,13,54,24.30
2017,08,04,13,55,24.30
2017,08,04,13,56,24.40
2017,08,04,13,57,24.40
2017,08,04,13,58,24.50
2017,08,04,13,59,24.50
2017,08,04,14,00,24.60
2017,08,04,14,01,24.70
2017,08,04,14,02,24.80
2017,08,04,14,03,24.90
2017,08,04,14,04,24.90
2017,08,04,14,05,24.90
2017,08,04,14,06,24.90
2017,08,04,14,07,24.90
2017,08,04,14,08,25.00
2017,08,04,14,09,25.00
2017,08,04,14,10,25.00
2017,08,04,14,11,24.90
2017,08,04,14,12,24.90
2017,08,04,14,13,24.90
2017,08,04,14,14,24.80
2017,08,04,14,15,24.80
2017,08,04,14,16,24.90
2017,08,04,14,17,24.90
2017,08,04,14,18,24.80
2017,08,04,14,19,24.80
2017,08,04,14,20,24.80
2017,08,04,14,21,24.80
2017,08,04,14,22,24.90
2017,08,04,14,23,24.90
2017,08,04,14,24,24.80
2017,08,04,14,25,24.70
2017,08,04,14,26,24.60
2017,08,04,14,27,24.60
2017,08,04,14,28,24.50
2017,08,04,14,29,24.40
2017,08,04,14,30,24.40
2017,08,04,14,31,24.50
2017,08,04,14,32,24.50
2017,08,04,14,33,24.60
2017,08,04,14,34,24.60
2017,08,04,14,35,24.60
2017,08,04,14,36,24.70
2017,08,04,14,37,24.80
2017,08,04,14,38,24.80
2017,08,04,14,39,24.70
2017,08,04,14,40,24.60
2017,08,04,14,41,24.70
2017,08,04,14,42,24.70
2017,08,04,14,43,24.80
2017,08,04,14,44,24.80
2017,08,04,14,45,24.90
2017,08,04,14,46,25.00
2017,08,04,14,47,25.30
2017,08,04,14,48,25.50
2017,08,04,14,49,25.60
2017,08,04,14,50,25.70
2017,08,04,14,51,25.60
2017,08,04,14,52,25.60
2017,08,04,14,53,25.50
2017,08,04,14,54,25.50
2017,08,04,14,55,25.40
2017,08,04,14,56,25.40
2017,08,04,14,57,25.40
2017,08,04,14,58,25.50
2017,08,04,14,59,25.60
2017,08,04,15,00,25.70
2017,08,04,15,01,25.60
2017,08,04,15,02,25.50
2017,08,04,15,03,25.50
2017,08,04,15,04,25.50
2017,08,04,15,05,25.60
2017,08,04,15,06,25.60
2017,08,04,15,07,25.70
2017,08,04,15,08,25.70
2017,08,04,15,09,25.70
2017,08,04,15,10,25.70
2017,08,04,15,11,25.70
2017,08,04,15,12,25.70
2017,08,04,15,13,25.50
2017,08,04,15,14,25.40
2017,08,04,15,15,25.20
2017,08,04,15,16,25.20
2017,08,04,15,17,25.10
2017,08,04,15,18,25.10
2017,08,04,15,19,25.10
2017,08,04,15,20,25.10
2017,08,04,15,21,25.10
2017,08,04,15,22,25.10
2017,08,04,15,23,25.10
2017,08,04,15,24,25.10
2017,08,04,15,25,25.00
2017,08,04,15,26,24.90
2017,08,04,15,27,24.80
2017,08,04,15,28,24.80
2017,08,04,15,29,24.80
2017,08,04,15,30,24.80
2017,08,04,15,31,24.90
2017,08,04,15,32,24.90
2017,08,04,15,33,24.90
2017,08,04,15,34,24.90
2017,08,04,15,35,24.90
2017,08,04,15,36,24.90
2017,08,04,15,37,25.00
2017,08,04,15,38,25.10
2017,08,04,15,39,25.20
2017,08,04,15,40,25.30
2017,08,04,15,41,25.30
2017,08,04,15,42,25.30
2017,08,04,15,43,25.30
2017,08,04,15,44,25.30
2017,08,04,15,45,25.30
2017,08,04,15,46,25.30
2017,08,04,15,47,25.30
2017,08,04,15,48,25.30
2017,08,04,15,49,25.30
2017,08,04,15,50,25.30
2017,08,04,15,51,25.30
2017,08,04,15,52,25.30
2017,08,04,15,53,25.30
2017,08,04,15,54,25.20
2017,08,04,15,55,25.10
2017,08,04,15,56,25.10
2017,08,04,15,57,25.10
2017,08,04,15,58,25.10
2017,08,04,15,59,25.20
2017,08,04,16,00,25.20
2017,08,04,16,01,25.10
2017,08,04,16,02,25.10
2017,08,04,16,03,25.10
2017,08,04,16,04,25.10
2017,08,04,16,05,25.10
2017,08,04,16,06,25.20
2017,08,04,16,07,25.20
2017,08,04,16,08,25.20
2017,08,04,16,09,25.30
2017,08,04,16,10,25.30
2017,08,04,16,11,25.30
2017,08,04,16,12,25.40
2017,08,04,16,13,25.30
2017,08,04,16,14,25.30
2017,08,04,16,15,25.30
2017,08,04,16,16,25.30
2017,08,04,16,17,25.30
2017,08,04,16,18,25.40
2017,08,04,16,19,25.50
2017,08,04,16,20,25.40
2017,08,04,16,21,25.40
2017,08,04,16,22,25.40
2017,08,04,16,23,25.40
2017,08,04,16,24,25.40
2017,08,04,16,25,25.50
2017,08,04,16,26,25.50
2017,08,04,16,27,25.60
2017,08,04,16,28,25.60
2017,08,04,16,29,25.60
2017,08,04,16,30,25.70
2017,08,04,16,31,25.70
2017,08,04,16,32,25.70
2017,08,04,16,33,25.70
2017,08,04,16,34,25.60
2017,08,04,16,35,25.50
2017,08,04,16,36,25.50
2017,08,04,16,37,25.60
2017,08,04,16,38,25.50
2017,08,04,16,39,25.50
2017,08,04,16,40,25.50
2017,08,04,16,41,25.60
2017,08,04,16,42,25.60
2017,08,04,16,43,25.70
2017,08,04,16,44,25.70
2017,08,04,16,45,25.70
2017,08,04,16,46,25.60
2017,08,04,16,47,25.60
2017,08,04,16,48,25.60
2017,08,04,16,49,25.70
2017,08,04,16,50,25.70
2017,08,04,16,51,25.80
2017,08,04,16,52,25.90
2017,08,04,16,53,25.90
2017,08,04,16,54,25.90
2017,08,04,16,55,25.90
2017,08,04,16,56,25.90
2017,08,04,16,57,26.00
2017,08,04,16,58,26.10
2017,08,04,16,59,26.10
2017,08,04,17,00,26.10
2017,08,04,17,01,26.20
2017,08,04,17,02,26.20
2017,08,04,17,03,26.20
2017,08,04,17,04,26.30
2017,08,04,17,05,26.30
2017,08,04,17,06,26.30
2017,08,04,17,07,26.20
2017,08,04,17,08,26.20
2017,08,04,17,09,26.10
2017,08,04,17,10,26.00
2017,08,04,17,11,26.00
2017,08,04,17,12,25.90
2017,08,04,17,13,25.90
2017,08,04,17,14,25.80
2017,08,04,17,15,25.80
2017,08,04,17,16,25.70
2017,08,04,17,17,25.70
2017,08,04,17,18,25.70
2017,08,04,17,19,25.80